CDT,Max TemperatureF,Mean TemperatureF,Min TemperatureF,Max Dew PointF,MeanDew PointF,Min DewpointF,Max Humidity, Mean Humidity, Min Humidity, Max Sea Level PressureIn, Mean Sea Level PressureIn, Min Sea Level PressureIn, Max VisibilityMiles, Mean VisibilityMiles, Min VisibilityMiles, Max Wind SpeedMPH, Mean Wind SpeedMPH, Max Gust SpeedMPH,PrecipitationIn, CloudCover, Events, WindDirDegrees
2013-3-1,56,44,31,32,29,26,85,60,35,30.24,30.19,30.14,10,10,7,21,8,31,T,3,,323
2013-3-2,50,41,31,26,21,17,69,50,31,30.35,30.28,30.24,10,10,10,20,10,24,0.00,3,,328
2013-3-3,65,46,26,37,28,21,85,55,25,30.25,30.13,29.98,10,10,7,21,7,30,0.00,3,,174
2013-3-4,78,63,48,58,51,38,83,62,40,29.96,29.79,29.69,10,10,10,22,15,40,0.00,6,,188
2013-3-5,65,54,42,59,35,22,84,54,23,30.32,30.10,29.74,10,10,10,30,14,37,T,3,,312
2013-3-6,63,50,37,33,23,15,70,43,16,30.42,30.32,30.25,10,10,10,15,6,22,0.00,3,,352
2013-3-7,65,51,37,35,31,25,76,50,23,30.35,30.26,30.20,10,10,10,10,6,11,0.00,3,,127
2013-3-8,71,56,41,45,36,31,76,50,24,30.29,30.19,30.09,10,10,10,17,7,32,0.00,7,,133
2013-3-9,71,64,56,61,54,44,78,67,55,30.08,29.94,29.78,10,10,7,23,13,30,0.02,8,Rain,156
2013-3-10,65,55,44,63,51,29,93,70,46,30.03,29.85,29.71,10,8,0,30,12,37,0.78,7,Fog-Rain-Thunderstorm,245
2013-3-11,58,47,36,33,29,27,76,55,33,30.08,30.03,29.97,10,10,10,20,9,26,0.00,2,,305
2013-3-12,66,49,32,37,29,20,89,55,20,30.27,30.17,30.07,10,10,10,12,3,14,0.00,0,,335
2013-3-13,67,53,39,37,32,25,79,51,22,30.46,30.38,30.28,10,10,6,16,4,21,0.00,0,,17
2013-3-14,75,57,38,44,37,31,79,53,27,30.43,30.32,30.22,10,10,10,16,6,22,0.00,1,,191
2013-3-15,81,65,49,49,45,42,80,54,28,30.22,30.11,29.98,10,10,10,20,11,26,0.00,0,,216
2013-3-16,81,68,54,57,53,49,100,67,33,29.97,29.90,29.79,10,10,10,22,12,29,0.00,3,,192
2013-3-17,81,71,60,63,59,57,90,69,48,29.87,29.79,29.66,10,10,10,18,10,30,T,7,Rain,180
2013-3-18,80,68,55,64,60,48,87,71,54,30.01,29.78,29.71,10,9,6,21,12,28,0.00,7,,242
2013-3-19,72,60,47,46,39,31,86,55,24,30.12,30.04,29.99,10,10,10,18,11,24,T,4,,80
2013-3-20,69,58,46,39,30,19,60,38,16,30.27,30.16,30.06,10,10,10,20,8,25,T,4,Rain,27
2013-3-21,59,52,45,40,34,28,58,50,42,30.05,29.91,29.73,10,10,10,16,9,60,0.01,8,Rain,107
2013-3-22,69,60,50,57,51,43,93,75,57,29.82,29.75,29.69,10,8,4,15,9,60,T,8,Rain,75
2013-3-23,60,55,49,55,51,47,100,88,75,29.85,29.74,29.62,10,5,2,24,7,29,0.33,8,Rain,29
2013-3-24,53,47,40,52,39,28,100,71,41,30.13,29.89,29.64,10,9,1,32,17,43,T,6,Rain,315
2013-3-25,57,44,31,28,21,13,72,45,18,30.38,30.25,30.14,10,10,10,28,13,35,0.00,0,,328
2013-3-26,56,42,28,28,22,18,78,51,24,30.48,30.40,30.34,10,10,10,16,5,20,0.00,0,,318
2013-3-27,67,48,29,34,28,25,85,53,20,30.41,30.31,30.20,10,10,10,15,6,18,0.00,1,,167
2013-3-28,74,60,45,49,45,35,80,62,44,30.31,30.24,30.17,10,10,10,13,6,17,0.00,6,,171
2013-3-29,78,69,59,56,54,50,80,63,46,30.23,30.17,30.12,10,10,7,16,7,24,0.00,6,,196
2013-3-30,74,66,57,64,59,55,100,83,66,30.10,30.04,29.93,10,7,0,49,7,63,1.58,7,Fog-Rain-Hail-Thunderstorm,198
2013-3-31,71,63,54,63,59,55,93,77,61,30.02,29.93,29.88,10,8,1,37,6,51,0.86,6,Rain-Thunderstorm,231